Theta_e
326 327 329 325 324 325 325 324 324 323 323 325 325 324 322 319 319 317 318 320 321 335 335 334 333 334 332 328 325 322 321 316 313 311 308 306 305 304 304 302 302 302 302 301
326 328 327 327 327 327 327 327 326 325 325 325 324 324 323 320 319 320 320 320 323 330 334 333 333 334 331 328 324 320 319 315 312 310 308 306 304 304 303 302 301 301 301 300
327 327 326 327 327 328 328 329 328 329 327 325 324 324 324 323 323 324 323 322 321 324 333 333 332 332 329 325 324 321 319 315 311 310 306 304 303 303 302 301 301 300 300 300
325 324 325 326 326 326 329 327 328 328 328 330 326 330 327 325 326 325 323 324 321 322 329 333 332 330 328 324 323 320 318 316 311 308 305 304 304 304 302 301 301 300 299 299
324 323 323 324 324 324 324 323 323 326 329 328 329 332 329 327 327 324 323 325 326 325 325 332 332 331 329 324 321 318 316 315 311 306 306 306 305 303 301 301 301 299 299 298
320 320 320 321 322 322 322 323 326 326 329 331 328 330 329 327 326 325 324 325 326 325 323 329 330 327 323 320 317 315 314 313 309 307 308 307 305 302 302 302 300 300 299 299
320 320 319 319 320 320 321 323 330 331 332 330 326 329 328 325 325 324 323 324 324 325 325 328 325 320 317 317 315 314 313 312 308 308 308 307 303 304 303 301 300 301 300 300
321 322 320 320 320 321 321 322 328 327 326 325 323 325 324 323 323 324 324 324 323 324 323 326 324 319 318 316 314 313 312 312 308 308 307 304 305 304 303 301 301 301 301 300
322 321 320 319 320 321 322 323 323 327 325 327 324 322 321 321 322 321 319 317 319 321 321 325 320 317 315 314 313 313 312 311 308 307 306 305 304 303 301 301 301 301 301 298
319 322 320 319 319 320 321 321 325 325 328 330 327 324 321 324 323 322 319 316 317 323 324 321 318 315 314 312 312 312 311 310 308 306 305 304 304 301 301 301 301 301 300 297
314 320 320 320 322 321 322 324 325 326 324 327 327 321 323 322 321 320 319 316 317 320 321 319 317 316 316 315 312 311 310 309 307 306 305 304 303 300 300 300 301 301 298 297
312 314 319 319 317 320 321 323 322 323 324 322 324 326 321 319 319 320 320 320 317 318 320 318 317 315 313 312 311 310 309 308 307 306 304 303 300 300 300 301 302 301 298 300
308 314 314 316 319 314 316 314 314 315 312 321 324 322 322 320 319 318 319 319 318 316 318 318 316 315 313 312 311 309 308 307 306 305 303 301 300 300 300 302 304 303 301 297
307 311 313 313 314 312 312 310 312 314 317 318 319 318 318 318 320 317 317 318 318 318 316 317 316 314 313 312 310 309 307 307 306 305 302 301 301 299 300 306 307 299 299 295
308 310 309 309 308 310 309 309 310 311 314 317 314 315 316 316 318 317 319 319 318 318 315 315 315 313 311 310 309 308 307 306 305 304 302 302 299 301 308 308 299 296 298 294
304 308 307 304 307 307 308 308 308 308 309 312 316 318 316 315 315 317 319 319 318 316 315 315 314 314 312 311 309 307 306 305 305 303 301 302 299 309 306 300 294 298 297 293
302 306 307 307 306 306 306 306 307 308 307 312 313 314 314 315 314 314 318 319 318 317 314 314 314 313 312 310 309 307 306 305 304 303 301 300 303 303 304 296 302 297 294 292
302 303 304 306 305 306 305 306 307 308 309 312 312 312 313 313 314 315 316 317 315 316 315 313 313 313 312 310 308 307 305 304 304 304 302 301 301 304 297 297 300 293 292 291
301 302 305 304 304 304 304 304 305 305 305 308 309 311 313 312 313 313 315 315 314 314 314 314 313 312 311 310 308 306 305 305 304 304 303 301 301 300 296 301 296 292 291 289
302 302 304 302 306 304 304 305 308 310 307 310 310 311 311 312 311 309 313 312 313 312 312 314 313 312 311 309 308 307 305 304 303 303 303 303 300 296 297 296 293 291 290 288
304 306 306 306 307 306 306 307 306 306 307 311 310 310 311 310 310 314 310 309 312 313 313 313 312 311 310 308 307 305 303 303 302 301 299 297 297 296 293 295 291 290 288 286
301 304 303 306 307 308 304 306 308 306 308 309 310 309 309 309 309 309 309 308 308 310 312 311 311 310 309 308 306 304 303 302 302 300 298 296 296 292 293 295 289 288 287 286
302 303 304 305 305 305 304 305 305 307 308 307 308 309 309 308 309 309 310 309 309 309 308 310 309 309 307 306 305 303 302 301 299 299 298 297 296 294 292 291 288 286 286 286
301 301 304 304 304 302 304 305 304 304 306 307 309 309 310 310 310 309 310 309 309 308 307 309 308 307 306 305 304 303 299 300 299 302 298 297 295 295 295 288 286 286 286 286
298 299 299 299 301 301 303 304 303 303 307 307 308 308 308 308 309 310 310 309 309 308 306 305 307 306 305 304 302 301 301 301 299 297 298 297 296 294 289 288 287 286 287 286
297 297 297 297 299 302 302 302 302 305 306 307 306 307 308 307 307 308 310 309 308 306 304 303 305 304 303 302 302 301 300 301 300 297 295 295 293 290 289 287 286 286 286 286
Wind_Speed
16 10 16 16 16 20 19 18 22 19 17 16 22 21 18 11 10 11 21 21 23 43 46 45 40 42 41 45 43 39 37 37 38 38 36 33 30 26 20 16 14 12 10 6
11 24 19 17 19 23 23 24 25 22 17 14 19 26 23 11 8 14 20 20 22 37 43 49 44 46 48 51 46 40 36 37 39 37 34 32 29 24 19 18 15 12 10 7
19 22 17 20 21 23 21 23 20 20 15 18 18 26 21 14 11 20 25 33 31 35 45 49 49 53 54 54 51 46 40 39 38 35 32 30 27 26 24 20 17 14 10 7
20 16 19 19 26 16 21 18 21 21 16 17 4 15 29 15 18 18 16 22 38 34 45 55 54 57 60 56 52 49 44 40 37 35 34 35 34 30 25 20 18 14 11 7
32 16 16 21 23 15 24 14 20 20 4 6 22 4 26 4 16 11 12 26 31 37 42 51 63 66 63 59 56 50 44 39 38 37 37 35 29 25 25 22 18 14 11 8
30 20 15 27 22 20 19 20 9 6 3 8 30 7 14 19 17 12 13 29 36 32 40 56 61 62 59 56 54 49 43 38 39 40 36 34 30 31 27 23 19 15 12 9
25 34 28 26 21 24 21 13 5 4 7 12 17 8 18 27 9 16 14 25 33 38 34 46 50 54 56 58 56 51 45 39 42 38 37 33 32 29 24 20 18 16 13 9
17 18 28 17 29 22 10 18 10 14 8 14 12 11 18 10 20 37 45 33 31 37 31 51 61 60 60 60 58 53 46 42 43 38 35 34 28 28 24 21 18 14 10 9
10 26 19 12 20 21 31 17 22 14 21 12 13 16 15 13 12 19 1 18 17 1 30 48 47 51 54 56 55 52 46 43 45 41 36 34 32 29 27 22 17 12 10 8
3 5 17 18 17 15 14 5 11 13 13 14 8 13 6 9 12 14 16 12 26 12 25 36 40 42 41 45 48 46 44 44 44 43 40 35 33 30 25 20 17 13 10 8
8 5 6 6 5 9 8 9 3 6 6 6 5 4 3 5 3 8 11 23 30 14 22 30 33 43 43 46 49 46 45 45 44 43 41 38 34 29 25 22 17 13 12 7
2 4 4 3 13 4 1 1 3 3 6 1 2 3 1 4 7 6 9 19 25 17 12 26 30 36 40 46 48 48 46 44 42 41 40 38 35 30 27 21 16 13 9 8
7 4 4 7 1 10 5 4 7 3 3 4 5 2 1 3 4 3 1 3 7 12 7 11 24 35 39 43 48 48 46 44 41 40 40 37 33 30 26 19 13 12 9 14
8 5 4 3 6 4 5 11 9 3 2 5 3 4 8 9 5 7 12 15 12 7 19 25 33 34 38 43 47 47 44 42 42 40 39 36 33 29 23 13 17 13 15 13
5 5 8 13 17 12 12 16 9 8 9 8 16 12 11 3 6 11 24 18 14 15 23 27 33 35 39 42 45 46 46 44 41 39 38 38 36 28 19 22 23 17 15 12
5 5 5 5 13 13 16 13 13 13 12 16 16 18 16 12 20 15 22 21 15 19 22 28 30 39 42 44 47 48 47 45 42 38 40 40 36 30 29 23 20 17 17 15
2 4 6 7 5 8 6 13 12 11 13 8 9 17 17 15 16 13 18 20 21 20 29 31 35 38 43 48 50 51 50 47 41 37 40 41 36 26 24 24 22 25 20 18
10 11 10 10 8 8 8 8 11 10 12 10 12 12 15 14 33 18 16 22 20 16 14 34 35 39 42 46 49 50 49 45 42 41 43 41 32 29 26 26 27 26 22 21
20 14 6 4 4 8 12 8 3 11 14 11 9 7 6 25 7 3 5 7 18 17 9 20 33 36 39 42 45 48 47 45 41 43 44 39 37 32 31 28 31 26 24 23
19 18 11 2 4 6 1 6 8 9 7 13 3 6 8 18 1 4 8 10 4 10 11 13 30 32 34 36 40 42 47 47 44 45 49 50 38 33 36 31 29 26 24 22
2 3 12 10 8 6 7 14 17 5 5 16 18 9 6 5 7 2 2 2 1 5 9 21 27 27 30 34 36 39 46 47 46 47 47 38 36 38 35 28 28 26 26 23
6 2 3 3 5 6 20 20 8 9 23 18 12 8 12 13 16 17 9 5 4 5 10 23 28 30 30 33 31 37 38 41 42 39 38 36 37 35 31 30 30 28 26 24
4 3 3 2 3 3 10 15 12 14 18 16 22 14 11 11 13 16 16 7 6 9 6 20 31 32 32 32 32 34 34 37 41 36 34 36 39 37 35 31 31 29 26 23
3 10 3 9 7 15 17 19 28 31 24 22 15 13 14 17 17 16 12 11 10 8 6 12 28 32 32 33 30 29 34 34 33 33 36 37 36 34 31 31 30 28 26 24
5 7 6 6 9 19 10 25 27 34 23 22 12 13 13 14 14 13 15 15 10 11 6 11 25 31 32 34 29 26 28 27 30 30 32 34 33 31 32 31 29 26 23 20
5 8 6 9 14 12 21 31 40 24 13 26 26 12 12 15 14 9 14 14 13 10 5 10 22 29 32 31 28 28 27 27 29 30 31 31 31 31 31 29 27 22 20 18
Wind_Direction
238 225 223 212 216 235 246 260 268 272 279 288 285 286 279 271 227 233 236 226 232 190 196 197 192 181 193 199 206 208 205 200 199 196 193 191 190 193 190 192 188 184 186 186
245 251 230 226 233 237 235 244 255 267 259 248 276 281 276 259 255 243 224 233 219 190 183 191 187 186 197 196 204 206 207 202 199 199 196 195 192 190 193 190 188 185 187 178
231 244 225 240 247 252 261 258 269 271 277 267 270 275 281 267 268 255 247 239 237 208 187 188 185 190 196 195 201 205 205 205 202 200 194 191 190 190 188 187 187 184 184 184
251 260 248 253 255 248 255 255 265 269 279 274 59 279 278 274 277 277 276 242 227 219 199 193 187 190 195 197 200 202 202 205 201 198 195 196 195 193 189 187 183 181 179 183
241 234 236 251 249 247 259 280 268 268 197 13 276 229 277 211 262 259 256 256 261 239 209 193 191 195 197 196 196 199 198 200 195 191 197 201 201 195 188 182 181 178 178 180
256 255 243 249 263 265 271 279 294 299 153 237 258 207 276 267 253 248 244 252 259 261 222 201 190 186 191 192 192 193 195 195 190 190 200 204 203 194 189 182 179 180 178 176
244 253 253 251 263 265 261 265 259 237 211 244 262 202 233 267 258 247 258 261 262 273 236 186 176 176 181 187 191 192 192 188 188 194 198 203 201 199 190 185 185 180 178 172
230 258 239 219 219 238 237 236 234 251 242 254 249 231 252 251 253 255 266 276 262 261 217 187 181 178 183 185 186 188 188 187 188 193 197 194 200 198 196 189 181 182 174 183
274 249 264 254 223 218 244 235 244 257 262 269 255 266 303 320 13 359 312 55 32 284 193 181 173 171 176 179 185 189 187 188 188 191 191 193 198 199 191 182 180 176 186 190
255 263 274 280 291 287 265 261 242 232 243 246 246 255 237 36 8 12 13 20 29 91 152 158 162 164 171 171 178 186 191 190 186 186 184 193 199 194 186 179 178 185 191 182
3 278 288 9 227 274 247 277 317 259 208 212 231 234 85 90 40 6 7 22 32 53 149 155 160 168 180 185 183 184 189 187 184 187 188 193 195 190 186 182 179 185 188 168
58 279 295 250 296 282 144 150 289 252 253 213 207 206 290 35 34 1 14 10 15 49 147 157 164 168 173 174 178 184 188 189 188 191 191 191 188 186 187 183 182 186 176 225
17 314 334 309 114 25 36 353 340 278 244 184 229 216 62 285 271 293 17 96 17 55 107 143 172 180 178 179 181 184 187 189 190 194 191 187 183 188 187 184 188 198 200 216
277 223 240 244 313 305 300 314 317 40 279 8 256 267 272 255 216 290 293 278 238 189 151 166 180 183 186 184 185 187 188 193 195 195 190 184 184 186 189 186 220 188 214 208
332 256 233 232 264 272 286 301 311 301 265 267 277 276 284 234 194 227 236 243 235 207 172 174 177 183 184 184 186 190 191 194 197 194 188 183 184 183 185 206 206 196 216 203
351 320 330 301 259 263 250 256 276 271 273 262 259 269 263 279 267 211 206 215 237 206 192 193 192 188 191 193 192 191 192 196 198 193 188 187 183 185 200 194 189 209 216 204
284 287 320 269 312 298 252 237 231 250 249 252 281 278 277 270 254 242 210 211 232 245 201 195 197 200 198 196 197 194 196 197 195 192 195 191 196 194 201 187 209 213 207 205
228 231 260 284 296 247 249 239 239 251 266 228 242 267 296 264 252 218 216 216 228 230 228 202 206 204 204 201 198 198 195 196 198 193 196 196 201 204 193 196 213 205 203 209
217 226 240 234 241 277 283 277 234 271 275 242 255 277 278 299 307 37 70 276 224 211 208 214 218 211 205 203 205 201 196 200 201 197 196 199 209 200 197 207 210 202 206 207
217 221 219 210 219 246 111 340 48 3 273 13 286 54 3 236 127 262 62 23 218 225 233 222 212 211 207 203 207 206 202 201 202 200 196 204 203 198 204 207 204 202 205 208
305 264 221 233 242 286 0 347 298 189 311 345 352 13 72 30 322 81 75 38 211 207 200 198 205 211 208 200 204 204 204 204 205 203 204 197 197 201 202 203 205 204 204 202
280 285 213 236 216 265 360 349 352 328 323 337 328 339 29 5 356 353 328 338 301 262 205 197 204 207 208 203 199 198 199 208 210 206 203 199 203 201 202 207 204 204 205 204
286 353 302 284 265 304 321 294 313 286 303 329 325 303 329 341 333 340 318 302 290 275 259 201 203 203 199 199 202 198 198 202 201 199 200 203 207 206 205 203 206 204 205 205
279 297 312 328 343 313 315 329 343 341 332 269 286 341 346 340 301 302 283 246 263 262 273 208 200 199 195 198 203 211 191 191 192 194 198 201 204 206 207 204 207 207 207 205
267 316 295 303 285 305 324 329 330 330 319 314 307 340 343 351 349 303 222 211 234 252 257 210 197 196 194 194 195 194 193 198 198 198 196 199 201 201 195 200 202 204 214 214
243 255 272 276 296 314 320 315 315 311 311 295 301 332 336 348 330 317 221 200 219 228 237 211 196 194 189 190 191 192 199 196 203 198 197 198 196 193 194 193 190 198 208 203